Temp
22 22 23 23 24 24 25 25 24 24 24 23 23 23 23 23 22 22 21 21 22 21 21 22 21 21 21 21 21 21 20 20 20 20 20 19 20 20 20 20 21 21 21 20 20 20 20 20 20 20 20 20 20 21 21 21 21 21 21 21 21 21 21
22 22 23 23 23 24 24 25 24 24 24 24 23 23 23 23 22 22 22 21 22 22 22 22 22 21 21 21 21 21 21 21 21 20 20 19 19 19 20 21 21 20 20 20 21 20 20 20 20 20 20 20 20 21 21 21 21 21 21 21 21 21 21
22 22 23 23 23 24 24 24 24 24 24 24 24 23 23 23 23 22 22 22 22 22 21 22 22 22 21 21 21 21 21 21 21 21 21 20 20 19 19 20 20 20 20 20 20 20 20 20 20 20 20 20 20 20 21 21 21 21 21 21 21 21 21
22 23 23 23 23 23 24 24 24 24 24 24 24 23 23 23 23 22 22 22 22 22 22 22 22 22 21 21 21 21 21 21 21 21 21 21 21 20 20 19 20 20 20 20 20 20 20 20 20 20 20 20 20 20 21 21 21 21 21 21 21 21 21
21 22 22 23 23 23 24 24 24 24 24 24 24 24 23 23 23 23 22 22 22 22 22 22 22 22 22 21 21 21 21 21 21 22 21 21 21 21 20 20 20 20 20 20 20 20 20 20 20 20 20 20 20 20 21 21 21 21 21 21 21 21 21
21 21 22 22 23 23 23 23 24 24 24 24 24 24 24 23 23 23 22 22 22 22 22 22 22 22 22 22 21 21 22 22 21 22 22 21 21 21 21 21 20 20 20 20 20 20 20 21 21 20 20 20 20 20 20 21 21 21 21 21 21 21 21
20 21 21 22 22 22 22 23 23 24 24 23 23 23 23 23 23 23 22 22 22 22 22 21 21 22 22 22 22 21 22 22 22 22 21 21 21 21 21 21 20 20 20 20 20 20 20 21 21 21 20 20 20 20 20 20 20 20 20 20 20 21 20
19 20 21 21 22 22 22 23 23 23 23 23 23 22 22 22 22 22 22 22 22 22 22 21 21 21 21 21 21 21 21 21 22 22 21 21 20 20 20 20 20 20 20 20 20 20 20 20 21 21 21 20 20 20 20 20 20 20 20 20 20 20 20
17 18 19 20 21 22 22 23 23 23 23 23 23 22 22 21 21 21 21 21 22 22 21 21 21 20 20 20 21 21 20 20 21 21 21 21 20 20 20 20 20 20 20 21 21 21 21 21 21 21 21 21 20 20 20 20 20 20 20 20 20 20 20
17 16 17 18 20 21 22 22 23 23 23 22 23 23 22 21 21 20 20 20 21 21 21 21 20 20 20 20 20 20 20 20 20 21 21 21 21 20 20 20 21 21 21 21 21 21 21 21 21 21 21 21 20 20 20 20 20 20 20 20 20 20 20
18 17 17 17 18 19 21 22 22 22 22 22 22 22 22 22 21 21 20 19 19 20 21 21 21 21 21 21 21 21 20 20 20 21 21 21 21 20 21 21 21 21 21 21 21 21 21 21 21 21 21 21 20 20 20 20 20 20 20 19 19 20 20
18 18 18 17 17 17 19 21 21 21 21 21 21 21 22 21 21 21 21 20 18 19 20 21 21 21 21 21 22 21 21 21 21 21 21 21 21 21 21 21 21 22 22 21 21 21 21 21 21 21 21 21 20 20 20 20 20 21 21 21 20 20 19
17 18 18 18 18 17 17 19 20 21 21 21 21 21 21 21 21 21 21 20 19 18 19 21 21 21 20 20 21 21 21 21 21 21 21 21 21 21 21 21 21 22 22 22 22 21 21 21 21 21 21 21 21 20 20 20 20 20 21 21 20 20 20
16 17 17 17 17 18 17 18 19 20 20 21 21 20 20 20 21 21 20 20 20 18 19 21 21 21 21 20 21 21 20 20 21 21 21 21 22 21 21 21 21 21 22 22 22 22 21 21 21 21 21 21 21 21 20 20 20 20 20 20 20 20 20
16 16 16 17 17 17 17 17 18 18 19 19 20 20 20 20 20 21 20 20 21 19 19 21 21 21 21 21 21 20 19 19 20 21 21 21 21 21 21 21 21 21 22 22 22 21 21 21 21 21 21 21 21 21 21 21 20 20 20 20 20 20 20
15 15 16 16 16 16 17 17 17 18 18 18 18 19 20 20 20 20 20 20 21 20 20 21 21 21 20 20 20 20 20 20 20 21 21 21 21 21 21 21 21 21 21 22 22 21 21 21 21 21 21 21 21 21 21 21 20 20 20 20 20 20 20
15 15 16 16 16 16 16 17 17 17 17 17 17 18 19 20 20 20 20 20 20 20 20 21 21 20 20 20 20 20 20 21 21 21 21 21 21 21 21 21 21 21 21 21 21 21 21 21 21 21 21 21 21 21 21 21 20 20 20 20 20 20 20
15 15 16 15 15 16 16 16 17 17 17 17 17 17 18 19 19 19 19 20 21 20 20 20 20 20 19 20 20 20 21 21 21 20 20 21 21 21 21 21 21 21 21 21 21 21 21 21 20 20 20 20 21 21 21 20 20 20 20 20 20 20 20
15 15 15 15 15 16 16 16 16 16 17 17 17 18 18 18 18 18 19 20 21 21 20 21 21 20 19 20 20 21 21 21 20 20 20 20 20 20 20 20 20 21 21 21 20 20 20 20 20 20 20 20 21 21 21 20 20 20 20 20 20 20 20
15 14 15 15 15 15 15 15 15 16 17 17 17 18 18 18 18 18 18 19 20 20 20 21 21 20 19 19 19 20 21 20 20 20 20 20 20 20 20 20 20 20 20 20 20 20 20 20 20 20 20 20 20 20 20 20 20 20 20 20 20 20 20
15 15 14 15 15 15 15 15 16 16 17 17 17 17 18 18 19 19 19 19 20 19 19 20 19 19 18 18 18 19 19 19 19 19 19 19 19 19 19 19 19 19 19 19 19 19 19 19 19 19 19 19 20 20 20 20 20 20 20 20 20 20 20
15 15 15 15 14 15 15 15 15 16 17 17 17 16 17 17 18 19 19 19 19 19 19 19 19 18 18 18 18 18 18 18 19 19 19 19 19 18 18 18 19 19 19 19 19 19 19 19 19 19 19 19 19 20 20 20 20 20 20 20 20 20 19
15 15 15 15 14 14 14 14 15 15 16 16 16 16 17 17 17 18 18 18 17 18 18 18 19 19 19 19 18 18 18 18 18 18 19 19 18 18 18 18 18 18 19 19 19 19 19 19 19 19 18 18 19 19 19 19 20 20 20 20 20 20 19
14 14 15 14 14 14 14 14 15 15 15 15 15 16 16 16 16 17 17 17 17 17 17 18 18 19 19 18 18 18 18 18 18 18 18 18 18 18 18 18 18 18 18 18 18 18 18 18 18 18 18 18 18 18 19 19 20 20 20 20 20 19 19
14 14 14 14 14 14 14 14 15 15 15 15 15 15 15 16 16 16 16 16 16 16 16 17 17 17 17 17 17 18 17 17 17 17 17 18 18 18 17 17 18 18 18 18 18 18 17 17 17 17 17 18 18 18 18 18 19 19 19 19 19 19 19
15 15 15 15 15 14 15 15 15 15 15 15 15 15 15 15 16 16 16 15 15 15 15 15 15 16 16 16 16 17 17 17 16 16 17 17 17 17 17 17 17 17 18 18 17 17 17 17 17 17 18 18 18 18 18 18 18 18 19 19 19 19 19
15 15 15 15 15 15 15 15 15 15 14 14 14 15 15 15 16 15 15 15 15 14 14 14 14 15 15 15 16 16 16 16 16 16 16 16 16 17 17 17 17 17 17 17 17 17 17 17 17 17 17 17 17 17 17 17 18 18 18 18 18 18 18
15 16 16 16 15 15 15 15 15 15 15 15 15 14 15 15 15 14 14 14 14 14 14 14 14 14 15 15 15 15 15 16 16 16 16 16 16 16 16 16 16 16 16 16 16 16 16 17 17 17 17 17 17 17 17 17 17 18 18 18 18 18 17
16 16 16 16 16 16 16 15 15 15 15 15 15 15 15 15 15 14 14 14 14 14 14 14 14 14 14 14 14 14 14 14 15 15 15 15 15 15 15 15 15 15 15 15 15 16 16 16 16 16 16 16 16 16 16 16 16 17 17 17 17 17 17
17 16 16 16 16 16 16 15 15 15 15 15 15 15 15 15 15 15 15 15 14 14 14 14 14 13 13 13 13 13 14 14 14 14 14 14 14 15 15 15 15 15 14 15 15 15 15 15 15 15 15 15 15 15 15 15 15 16 16 16 16 16 17
17 17 17 17 17 17 16 15 15 15 15 14 14 15 15 15 15 15 15 15 15 15 15 15 14 14 14 14 14 14 14 14 14 14 15 15 15 15 15 15 15 14 14 14 14 14 14 14 14 14 14 15 15 15 14 14 15 15 15 15 16 16 16
17 18 17 17 17 16 16 15 15 15 15 15 14 14 14 14 14 15 15 15 15 15 15 15 15 15 15 15 15 15 15 15 15 15 15 15 15 15 15 14 15 14 14 14 14 14 14 14 14 14 14 14 14 14 14 14 14 14 15 15 15 15 15
17 17 17 17 16 16 16 15 15 15 15 15 14 14 14 14 14 14 14 14 15 15 15 15 15 15 15 15 15 15 15 15 15 15 15 15 15 15 15 15 15 15 15 15 15 15 14 14 14 14 14 14 14 14 14 14 14 14 14 15 15 15 15
16 16 16 17 17 16 16 15 15 15 15 15 15 15 14 14 14 14 14 14 14 14 14 14 14 14 15 15 16 16 16 15 15 16 16 15 16 16 16 15 15 15 15 15 15 15 15 15 15 15 14 14 15 15 15 15 15 15 15 15 15 15 14
15 15 15 16 16 16 16 15 15 15 15 15 15 14 14 14 14 14 15 15 15 14 14 14 14 14 14 14 15 15 15 15 15 15 15 15 16 16 16 16 15 15 15 15 15 15 15 15 15 15 15 15 15 15 15 15 15 15 15 15 15 15 15
15 15 15 15 15 15 15 15 15 15 14 14 14 14 14 14 14 14 15 15 15 15 15 14 15 14 14 14 14 14 15 15 14 15 15 15 15 15 15 15 15 15 15 15 15 15 15 15 15 15 15 15 15 15 16 15 15 15 15 15 15 14 14
15 15 14 14 14 14 14 14 14 14 14 14 14 14 14 14 14 14 15 15 15 15 15 15 15 15 14 14 14 14 14 14 14 14 14 14 14 14 14 15 15 15 15 15 15 15 15 15 15 15 15 15 15 15 15 15 15 15 15 14 14 13 13
14 14 14 14 14 14 14 14 14 14 14 14 14 14 14 14 14 14 14 14 14 15 15 15 15 14 14 14 14 13 13 13 13 13 13 13 13 13 14 14 14 14 14 14 14 14 14 14 15 15 15 15 15 15 15 15 15 14 14 13 13 13 13
Height
1507 1508 1510 1512 1513 1515 1517 1518 1520 1521 1523 1526 1529 1531 1533 1533 1533 1535 1537 1539 1541 1543 1544 1546 1548 1550 1552 1554 1556 1557 1559 1560 1562 1563 1564 1566 1566 1567 1568 1569 1569 1570 1571 1571 1572 1573 1573 1574 1575 1576 1576 1577 1578 1578 1578 1579 1579 1579 1580 1580 1580 1581 1581
1504 1506 1508 1510 1511 1513 1516 1518 1519 1520 1521 1524 1526 1529 1531 1532 1532 1533 1535 1537 1539 1541 1543 1545 1547 1549 1550 1552 1554 1556 1557 1559 1560 1562 1563 1564 1565 1566 1567 1568 1568 1569 1570 1570 1571 1572 1573 1573 1574 1575 1575 1576 1577 1577 1577 1578 1578 1579 1579 1579 1580 1580 1580
1502 1504 1505 1508 1509 1511 1514 1516 1518 1518 1519 1521 1524 1527 1529 1530 1530 1531 1533 1536 1538 1540 1542 1543 1545 1547 1549 1551 1552 1554 1556 1557 1559 1560 1561 1562 1564 1565 1566 1567 1568 1568 1569 1570 1571 1571 1572 1573 1573 1574 1574 1575 1576 1576 1576 1577 1577 1578 1578 1579 1579 1579 1580
1502 1502 1503 1506 1507 1509 1512 1514 1516 1517 1518 1520 1521 1524 1527 1528 1529 1530 1532 1534 1536 1538 1539 1541 1544 1545 1547 1549 1551 1552 1554 1555 1557 1558 1560 1561 1562 1564 1565 1566 1567 1568 1569 1569 1570 1571 1571 1572 1572 1573 1573 1574 1574 1574 1575 1576 1576 1577 1577 1578 1578 1578 1579
1502 1501 1502 1504 1505 1507 1509 1511 1514 1515 1517 1519 1520 1522 1525 1527 1528 1528 1530 1532 1534 1536 1537 1540 1542 1544 1546 1548 1549 1551 1552 1554 1556 1557 1559 1560 1561 1563 1564 1565 1566 1567 1568 1569 1570 1570 1571 1571 1572 1572 1573 1573 1573 1573 1574 1574 1575 1576 1576 1577 1577 1577 1578
1501 1500 1501 1502 1503 1505 1506 1510 1512 1513 1515 1518 1519 1520 1522 1524 1526 1526 1528 1530 1532 1534 1536 1538 1540 1542 1544 1546 1548 1550 1551 1553 1554 1556 1557 1559 1560 1562 1562 1564 1565 1566 1567 1568 1569 1569 1570 1571 1571 1571 1572 1572 1572 1573 1573 1573 1574 1574 1575 1575 1576 1576 1576
1501 1499 1499 1500 1501 1503 1506 1509 1510 1510 1513 1515 1517 1519 1520 1522 1523 1524 1526 1527 1529 1532 1533 1535 1538 1540 1542 1544 1547 1548 1549 1551 1553 1554 1556 1558 1559 1560 1561 1562 1563 1564 1565 1566 1567 1568 1569 1569 1570 1570 1571 1571 1571 1572 1572 1572 1573 1573 1574 1574 1574 1575 1575
1503 1499 1497 1498 1499 1501 1504 1506 1507 1509 1511 1512 1514 1517 1519 1519 1521 1523 1523 1524 1527 1529 1531 1533 1535 1538 1541 1543 1545 1547 1548 1550 1552 1553 1555 1557 1558 1559 1560 1561 1562 1563 1564 1565 1566 1566 1567 1568 1568 1569 1570 1570 1570 1571 1571 1572 1572 1572 1573 1573 1573 1574 1574
1505 1501 1498 1497 1497 1498 1500 1502 1504 1507 1508 1510 1512 1513 1516 1518 1519 1520 1521 1522 1524 1526 1528 1531 1533 1536 1539 1541 1543 1545 1547 1549 1550 1552 1554 1555 1557 1558 1559 1560 1561 1562 1563 1563 1564 1565 1565 1566 1567 1567 1568 1569 1569 1570 1570 1571 1572 1572 1572 1572 1573 1573 1573
1506 1505 1502 1499 1498 1496 1497 1499 1501 1504 1505 1507 1510 1510 1513 1516 1518 1518 1520 1522 1523 1525 1527 1529 1532 1535 1537 1539 1542 1544 1546 1548 1549 1551 1552 1554 1555 1557 1558 1559 1560 1561 1562 1562 1563 1563 1564 1565 1565 1566 1566 1567 1568 1569 1569 1570 1571 1571 1571 1571 1572 1571 1571
1504 1504 1503 1502 1500 1498 1497 1498 1500 1501 1503 1505 1507 1509 1511 1514 1515 1517 1520 1523 1524 1526 1526 1527 1530 1534 1536 1538 1540 1542 1544 1546 1548 1549 1551 1552 1554 1555 1557 1558 1559 1560 1560 1560 1561 1562 1562 1563 1564 1564 1565 1565 1566 1567 1567 1567 1568 1568 1568 1570 1570 1570 1569
1502 1501 1501 1502 1501 1500 1499 1498 1499 1500 1501 1504 1506 1507 1510 1512 1513 1515 1518 1522 1525 1524 1522 1523 1526 1529 1533 1536 1538 1540 1542 1544 1546 1548 1549 1551 1552 1553 1555 1557 1557 1558 1558 1559 1559 1560 1560 1561 1562 1562 1563 1564 1564 1564 1564 1565 1566 1565 1565 1567 1568 1568 1568
1501 1499 1499 1500 1500 1501 1500 1498 1498 1499 1500 1502 1503 1505 1507 1508 1510 1513 1516 1519 1523 1522 1520 1521 1524 1526 1528 1532 1535 1538 1541 1543 1545 1546 1548 1549 1550 1552 1554 1555 1555 1556 1557 1557 1558 1558 1559 1559 1559 1560 1560 1561 1562 1562 1563 1564 1564 1564 1564 1564 1565 1565 1566
1500 1499 1498 1498 1500 1501 1500 1499 1498 1497 1498 1499 1500 1502 1503 1505 1508 1511 1513 1516 1521 1523 1522 1523 1524 1526 1528 1530 1533 1535 1537 1538 1540 1542 1545 1546 1548 1550 1552 1552 1553 1554 1555 1555 1556 1556 1557 1557 1558 1558 1559 1559 1560 1560 1561 1562 1562 1562 1562 1563 1563 1564 1565
1502 1501 1499 1499 1500 1500 1500 1500 1499 1497 1497 1497 1497 1498 1499 1503 1507 1509 1512 1514 1517 1521 1524 1524 1523 1527 1530 1532 1534 1535 1535 1538 1541 1543 1544 1546 1547 1548 1549 1550 1551 1552 1553 1553 1554 1555 1555 1555 1556 1556 1557 1557 1557 1558 1558 1559 1560 1560 1561 1561 1561 1562 1562
1504 1503 1502 1501 1500 1501 1501 1501 1499 1498 1496 1496 1495 1495 1497 1501 1504 1507 1510 1512 1513 1518 1524 1524 1524 1527 1530 1532 1534 1535 1538 1542 1544 1543 1545 1546 1547 1547 1548 1549 1549 1550 1551 1551 1552 1553 1553 1553 1554 1554 1554 1555 1555 1556 1556 1556 1558 1559 1559 1559 1560 1560 1560
1506 1504 1503 1502 1501 1501 1502 1501 1500 1498 1496 1495 1490 1487 1492 1498 1501 1504 1508 1509 1512 1517 1523 1524 1524 1527 1529 1530 1533 1535 1538 1541 1541 1541 1543 1544 1545 1546 1546 1547 1547 1548 1549 1549 1550 1550 1550 1551 1551 1550 1551 1552 1553 1554 1554 1554 1555 1556 1557 1557 1558 1559 1559
1509 1506 1504 1503 1502 1502 1501 1502 1501 1498 1496 1495 1487 1482 1489 1497 1500 1503 1506 1507 1510 1516 1521 1523 1524 1526 1526 1527 1531 1534 1536 1537 1538 1539 1541 1542 1543 1543 1543 1544 1544 1545 1546 1546 1547 1547 1547 1547 1547 1547 1548 1549 1550 1551 1551 1551 1553 1553 1554 1555 1556 1557 1557
1511 1508 1505 1504 1504 1502 1501 1502 1501 1499 1497 1497 1492 1489 1495 1500 1501 1504 1505 1505 1508 1514 1518 1520 1521 1522 1524 1526 1530 1533 1533 1534 1535 1537 1538 1539 1540 1541 1541 1541 1542 1542 1543 1544 1544 1545 1545 1545 1544 1544 1545 1546 1547 1548 1548 1549 1550 1551 1552 1553 1553 1554 1554
1514 1511 1508 1506 1504 1503 1503 1502 1501 1499 1498 1498 1498 1498 1500 1501 1502 1504 1505 1505 1507 1511 1514 1516 1517 1519 1522 1525 1529 1531 1532 1532 1533 1535 1537 1537 1538 1538 1538 1539 1539 1540 1540 1541 1541 1542 1542 1542 1542 1542 1543 1544 1544 1545 1546 1547 1548 1549 1549 1550 1551 1551 1552
1516 1514 1511 1509 1507 1505 1504 1502 1500 1499 1497 1497 1499 1500 1501 1501 1501 1502 1504 1505 1507 1510 1512 1514 1515 1518 1522 1525 1528 1530 1531 1531 1532 1533 1534 1534 1535 1536 1536 1536 1536 1537 1537 1538 1538 1538 1538 1539 1539 1539 1540 1541 1541 1542 1543 1544 1545 1546 1547 1547 1548 1549 1549
1516 1515 1514 1512 1510 1508 1504 1501 1500 1498 1496 1496 1497 1499 1500 1500 1501 1502 1503 1505 1508 1510 1511 1513 1515 1518 1520 1523 1525 1527 1528 1528 1529 1531 1531 1531 1532 1532 1533 1533 1533 1533 1534 1534 1535 1535 1535 1536 1536 1536 1536 1537 1538 1539 1540 1541 1542 1543 1544 1545 1545 1546 1546
1517 1517 1516 1514 1512 1510 1506 1503 1501 1500 1498 1497 1497 1499 1500 1501 1502 1503 1504 1507 1509 1510 1512 1513 1516 1517 1519 1520 1522 1524 1525 1526 1527 1528 1528 1528 1528 1528 1529 1529 1529 1530 1531 1531 1532 1533 1533 1533 1533 1533 1533 1534 1535 1536 1537 1539 1540 1541 1541 1542 1542 1543 1544
1519 1518 1517 1515 1513 1511 1508 1505 1502 1502 1501 1499 1500 1501 1502 1503 1504 1505 1506 1509 1510 1511 1512 1513 1515 1517 1518 1520 1521 1522 1522 1523 1524 1524 1525 1524 1524 1524 1525 1526 1527 1528 1528 1528 1529 1529 1530 1530 1529 1529 1529 1531 1532 1533 1534 1536 1537 1538 1538 1539 1540 1541 1542
1520 1520 1518 1516 1514 1511 1509 1507 1505 1504 1503 1502 1503 1504 1505 1506 1507 1508 1509 1510 1511 1512 1513 1514 1516 1517 1519 1520 1520 1521 1521 1521 1521 1521 1521 1521 1521 1522 1524 1525 1525 1525 1525 1525 1525 1525 1526 1526 1524 1524 1526 1528 1529 1530 1532 1533 1534 1535 1536 1536 1538 1539 1540
1518 1521 1520 1517 1515 1514 1511 1510 1508 1506 1505 1505 1506 1507 1507 1508 1508 1509 1511 1511 1512 1513 1514 1515 1517 1518 1519 1520 1519 1519 1519 1519 1519 1520 1520 1520 1520 1522 1523 1523 1523 1523 1522 1522 1521 1522 1522 1520 1519 1521 1523 1525 1526 1528 1530 1532 1533 1534 1535 1535 1536 1537 1538
1516 1519 1519 1518 1517 1516 1514 1512 1510 1508 1508 1508 1509 1509 1509 1509 1509 1510 1512 1512 1512 1514 1515 1516 1517 1517 1518 1517 1517 1517 1517 1517 1518 1518 1519 1519 1521 1522 1522 1522 1521 1520 1519 1519 1518 1518 1517 1516 1515 1518 1520 1522 1524 1526 1528 1529 1531 1533 1534 1534 1534 1535 1536
1515 1518 1519 1519 1519 1518 1516 1515 1513 1512 1512 1512 1512 1511 1511 1511 1511 1512 1513 1514 1514 1516 1517 1517 1517 1516 1516 1516 1515 1516 1516 1517 1518 1518 1519 1520 1521 1521 1521 1521 1520 1519 1518 1518 1518 1517 1516 1515 1516 1517 1519 1520 1522 1524 1526 1528 1529 1530 1531 1532 1532 1533 1534
1516 1518 1519 1520 1521 1520 1519 1518 1517 1517 1517 1516 1515 1515 1514 1514 1514 1514 1515 1516 1517 1518 1518 1518 1518 1518 1517 1517 1517 1517 1518 1518 1519 1519 1520 1521 1522 1522 1522 1521 1521 1520 1519 1518 1518 1518 1518 1517 1518 1519 1519 1520 1521 1522 1524 1526 1527 1527 1528 1528 1529 1531 1532
1518 1519 1520 1521 1522 1522 1521 1521 1520 1521 1521 1520 1519 1518 1517 1517 1516 1516 1517 1518 1519 1520 1520 1519 1520 1520 1520 1520 1520 1520 1520 1520 1521 1521 1522 1522 1523 1523 1522 1522 1522 1521 1520 1519 1519 1519 1519 1519 1519 1520 1520 1520 1521 1522 1524 1525 1525 1526 1525 1525 1527 1528 1530
1519 1520 1520 1521 1523 1523 1523 1523 1522 1523 1524 1524 1523 1522 1521 1520 1520 1519 1519 1521 1522 1522 1522 1522 1522 1522 1523 1523 1523 1523 1523 1523 1523 1523 1524 1524 1525 1524 1524 1524 1523 1522 1521 1520 1520 1520 1520 1520 1521 1521 1521 1521 1522 1524 1524 1525 1525 1525 1525 1525 1526 1527 1528
1519 1519 1520 1521 1523 1524 1524 1524 1525 1525 1526 1526 1526 1525 1524 1524 1523 1523 1523 1524 1524 1524 1524 1524 1525 1525 1525 1526 1525 1526 1526 1525 1525 1526 1526 1526 1526 1526 1526 1526 1525 1524 1523 1522 1521 1521 1521 1522 1522 1522 1523 1523 1524 1525 1525 1525 1526 1526 1526 1526 1526 1526 1527
1520 1520 1520 1522 1523 1524 1525 1526 1526 1527 1528 1528 1529 1528 1527 1527 1526 1526 1527 1527 1527 1527 1527 1527 1527 1527 1528 1528 1528 1528 1528 1528 1528 1528 1528 1528 1528 1528 1528 1527 1527 1526 1525 1524 1524 1524 1523 1524 1524 1524 1525 1525 1525 1525 1526 1526 1526 1526 1526 1526 1527 1527 1527
1522 1522 1522 1523 1524 1525 1526 1527 1528 1529 1529 1530 1530 1530 1530 1529 1529 1529 1529 1529 1529 1529 1529 1529 1529 1529 1530 1530 1530 1530 1530 1530 1531 1531 1530 1530 1530 1530 1529 1529 1529 1529 1528 1527 1527 1526 1526 1526 1526 1526 1526 1526 1527 1527 1527 1527 1527 1526 1527 1527 1528 1528 1528
1523 1523 1524 1524 1525 1526 1527 1528 1529 1530 1530 1531 1531 1531 1531 1531 1531 1531 1531 1531 1531 1531 1531 1531 1531 1532 1532 1532 1532 1533 1533 1533 1533 1533 1533 1532 1532 1532 1531 1531 1531 1531 1530 1530 1530 1529 1529 1529 1528 1528 1528 1528 1528 1528 1528 1528 1528 1528 1528 1529 1529 1529 1530
1524 1525 1526 1527 1528 1528 1529 1530 1531 1531 1531 1532 1532 1533 1533 1533 1533 1533 1533 1534 1534 1533 1533 1533 1533 1534 1534 1535 1535 1535 1535 1535 1535 1535 1535 1535 1534 1534 1533 1533 1533 1533 1533 1532 1532 1532 1531 1531 1530 1530 1530 1530 1530 1530 1529 1529 1529 1529 1530 1530 1531 1531 1532
1525 1526 1527 1529 1530 1531 1531 1532 1533 1533 1533 1534 1534 1534 1535 1535 1535 1535 1535 1536 1535 1535 1535 1535 1535 1536 1536 1536 1537 1537 1537 1537 1537 1537 1537 1537 1536 1536 1536 1536 1536 1535 1535 1535 1534 1534 1534 1533 1532 1532 1532 1531 1531 1531 1531 1531 1531 1531 1532 1532 1533 1534 1534
1526 1528 1530 1530 1531 1532 1533 1534 1535 1535 1535 1536 1536 1537 1537 1537 1537 1537 1537 1537 1537 1537 1537 1537 1537 1537 1537 1537 1538 1538 1539 1539 1539 1538 1538 1538 1538 1538 1538 1538 1538 1537 1537 1537 1537 1536 1536 1535 1535 1534 1534 1533 1533 1533 1533 1533 1533 1533 1534 1534 1535 1536 1536
Wind_Speed
24 24 26 27 25 20 17 23 28 28 26 26 27 26 27 28 29 28 25 23 25 28 27 26 26 27 26 25 25 26 24 23 24 24 22 21 20 19 19 18 17 16 15 16 16 16 15 12 9 8 8 8 8 9 9 8 8 8 9 8 8 8 8
24 24 25 27 26 22 18 22 28 29 26 27 27 27 27 28 30 29 25 23 24 27 28 26 26 27 26 25 25 25 24 22 22 22 21 20 18 18 17 17 17 16 15 13 12 12 13 13 12 11 10 10 10 9 9 9 8 8 9 8 8 8 8
22 24 25 24 25 25 21 19 25 28 27 27 28 28 28 28 29 29 27 24 23 26 28 27 26 27 26 26 25 24 24 22 21 21 21 20 20 18 16 14 15 15 15 13 10 9 10 11 15 15 14 13 12 10 9 9 9 8 8 8 8 7 7
12 17 22 23 21 23 22 19 21 25 26 28 29 30 30 28 28 28 27 25 22 24 28 28 26 27 27 26 26 25 24 23 21 21 20 20 19 19 18 16 15 14 14 13 13 12 10 10 12 15 15 15 14 11 9 9 9 9 9 8 8 7 7
8 10 16 21 21 21 20 18 18 20 24 28 30 29 29 28 29 29 28 27 24 23 26 28 26 26 26 26 26 25 25 24 22 21 20 19 18 18 19 18 17 16 15 14 15 16 14 12 11 12 13 14 15 14 11 10 9 9 9 9 8 8 7
9 10 13 18 20 21 20 18 19 20 22 25 28 27 27 29 29 30 30 28 25 23 24 27 27 26 27 26 26 25 24 24 23 22 20 19 18 18 18 17 17 18 18 16 16 16 16 15 13 12 12 12 13 14 13 13 12 10 9 9 9 8 8
9 10 12 15 17 21 24 22 21 21 20 22 26 25 25 29 31 31 31 30 27 24 24 26 27 26 26 26 26 25 24 23 22 22 21 19 18 18 16 15 15 16 16 15 15 15 15 16 15 14 13 13 12 11 11 12 13 11 9 9 9 8 7
14 10 11 15 16 19 25 25 22 21 20 22 27 27 25 28 30 31 32 31 29 26 24 25 26 25 25 25 25 25 23 22 21 21 21 20 19 19 18 16 15 13 13 13 13 12 13 14 14 14 14 14 13 12 10 9 10 10 10 10 10 10 9
19 16 11 13 17 20 24 26 23 23 22 22 26 29 27 26 27 30 32 31 29 28 25 25 26 24 24 24 23 23 22 21 20 20 20 21 21 20 19 17 16 14 13 14 14 13 13 14 14 14 14 15 15 14 12 11 10 12 13 13 13 13 12
15 18 15 11 14 18 22 26 26 25 24 22 24 28 28 27 26 26 27 26 26 27 25 24 25 24 23 23 22 22 22 21 19 18 17 19 20 20 18 17 16 16 15 14 15 15 15 15 15 16 16 14 15 16 15 14 14 14 15 14 14 15 14
10 13 15 11 10 12 16 22 26 27 27 25 22 25 27 30 30 27 25 22 21 24 28 24 23 25 24 23 21 20 21 21 20 19 17 16 17 18 17 17 16 17 16 15 15 15 15 15 16 16 16 14 14 17 18 18 17 16 15 15 15 16 16
7 8 9 10 10 9 9 14 19 24 27 26 23 23 25 28 30 28 29 25 18 18 31 31 25 24 23 23 23 20 20 21 20 20 19 17 16 16 16 17 18 18 18 17 16 16 15 16 17 16 16 16 16 18 19 19 18 16 16 17 16 17 16
7 7 6 6 10 10 8 9 14 18 22 25 24 23 24 27 29 26 29 28 17 10 23 32 26 24 23 23 25 23 20 22 21 20 20 19 18 18 18 19 19 18 18 18 17 18 18 18 18 17 17 17 17 19 19 18 18 18 18 17 16 16 15
8 9 7 5 8 9 8 8 11 14 18 23 25 26 25 25 28 27 25 27 21 10 15 25 25 22 21 22 25 24 20 20 23 22 21 20 19 19 21 21 19 17 18 17 16 18 19 19 19 19 19 18 18 19 19 18 18 18 17 14 13 13 13
12 13 10 8 7 7 7 7 7 10 14 18 23 27 28 25 28 30 25 21 20 15 15 21 20 18 18 19 22 22 18 16 20 21 20 21 21 21 21 20 20 20 20 19 17 16 16 17 17 18 19 19 19 19 20 19 18 17 15 13 12 13 13
11 13 14 11 9 7 3 2 4 5 9 15 23 29 28 24 26 29 25 18 16 15 16 19 18 16 17 19 20 21 19 17 18 19 20 20 20 20 19 18 19 21 22 23 21 19 17 16 16 17 19 20 19 18 19 19 18 15 12 11 12 14 15
9 9 13 14 11 8 5 4 5 8 5 10 20 30 29 23 21 23 22 17 14 14 16 19 20 18 17 20 21 19 18 18 17 18 20 21 19 19 19 18 19 20 21 22 22 22 20 18 17 17 18 18 17 17 17 18 17 14 12 12 13 14 15
9 6 9 13 11 6 4 4 7 12 11 8 6 24 26 19 17 16 18 17 14 15 17 19 21 18 16 17 17 16 17 18 16 16 18 19 19 19 19 19 19 20 21 22 22 22 21 20 19 19 18 17 15 15 15 16 16 14 12 12 14 15 15
9 6 7 10 9 7 7 5 6 9 12 12 16 19 17 14 14 13 13 15 14 14 16 18 18 15 12 13 13 14 15 16 16 17 17 17 19 20 20 19 18 18 20 21 22 22 21 21 20 20 19 16 15 15 15 15 15 14 12 12 12 14 15
7 6 6 8 8 8 8 7 6 8 11 13 13 13 11 11 11 10 10 11 10 10 12 14 15 13 11 12 13 15 16 16 16 16 16 17 18 19 19 19 18 17 18 18 20 20 20 21 21 21 20 18 16 16 16 16 16 15 14 13 11 12 14
5 4 6 8 8 8 8 8 7 7 8 10 10 9 10 11 11 9 8 9 9 9 9 11 13 12 11 11 13 15 17 18 18 17 17 17 18 17 18 18 18 18 18 19 19 19 19 20 20 20 20 18 18 18 18 17 16 15 14 13 12 12 12
5 6 7 10 11 11 11 11 10 8 8 7 6 6 7 8 9 10 10 10 11 12 12 14 14 14 12 12 13 14 15 16 15 15 16 16 16 16 17 18 19 19 20 20 20 20 20 19 19 19 19 18 19 20 19 18 16 15 14 14 14 14 13
6 8 10 13 15 16 15 15 13 10 9 8 7 7 6 5 6 8 9 10 10 11 12 13 13 13 13 13 13 13 14 14 12 12 14 15 15 16 17 18 19 19 20 21 22 22 21 20 19 19 18 18 20 21 20 18 17 15 13 12 13 14 13
6 11 13 15 17 18 18 17 16 14 12 11 11 10 8 6 5 6 8 9 9 10 10 11 11 13 12 11 11 12 13 12 12 12 14 14 14 15 16 17 18 19 20 21 22 23 21 20 20 19 17 18 20 20 20 19 18 16 13 12 12 12 12
7 9 12 15 17 19 19 19 19 19 17 16 14 10 7 6 6 7 10 11 9 8 9 8 8 9 9 9 10 11 11 10 10 11 11 12 12 13 15 16 16 18 19 20 21 20 19 20 21 20 19 18 19 19 18 17 16 15 13 12 12 11 10
11 8 11 15 16 16 18 19 20 21 21 20 18 15 11 9 9 11 13 15 14 15 15 13 10 9 7 6 7 7 7 6 6 6 7 8 9 10 11 12 13 15 16 17 17 18 20 24 25 21 18 18 18 18 17 14 12 12 11 11 11 11 11
16 12 16 19 17 16 18 19 20 21 21 20 19 19 17 16 17 18 19 19 19 19 18 16 14 13 12 10 9 7 6 4 3 1 0 1 2 3 3 3 5 6 7 9 11 15 21 24 22 16 14 16 17 17 16 14 12 11 12 12 12 12 12
16 15 19 20 15 14 18 21 22 22 21 19 18 19 18 19 22 24 24 24 24 21 19 17 16 16 16 15 15 14 13 11 10 9 8 7 6 5 6 7 6 5 6 4 5 14 17 15 13 12 14 16 16 16 16 14 13 14 14 15 15 13 12
14 14 17 17 14 15 20 23 24 24 24 23 22 21 21 22 23 23 24 25 25 23 21 20 19 19 19 20 19 19 18 17 16 15 13 11 9 9 9 9 8 8 9 7 4 6 6 5 6 8 11 13 14 13 13 14 14 15 15 15 13 11 10
12 13 15 14 15 18 21 22 24 25 25 26 26 26 27 28 28 27 25 23 21 20 20 21 21 22 22 22 21 21 20 19 18 17 16 15 13 12 12 12 11 11 11 11 9 8 7 8 7 5 4 4 3 3 5 6 6 6 6 5 4 4 6
14 15 15 13 12 17 20 21 23 24 24 24 25 26 28 30 31 31 30 27 24 22 21 20 20 20 20 20 19 19 18 17 17 17 17 16 15 15 15 15 15 15 16 16 16 14 14 14 13 11 10 10 8 7 8 7 6 4 3 2 1 0 2
16 15 15 14 13 15 18 19 21 21 22 22 22 23 24 26 27 27 27 26 26 27 26 24 22 21 20 20 19 19 18 18 18 17 17 16 16 16 16 16 15 16 17 17 17 17 17 16 16 14 13 13 13 12 12 11 10 8 7 5 4 3 3
17 17 17 16 18 20 21 20 20 19 19 20 19 18 19 21 22 21 20 18 19 23 25 26 25 23 22 21 20 19 19 20 20 19 18 17 16 16 17 16 16 16 17 18 18 18 17 16 16 15 14 14 14 14 13 12 12 11 10 9 8 7 7
19 18 17 16 17 18 19 20 20 20 20 20 18 17 18 19 18 17 16 16 15 17 21 23 23 23 22 21 20 20 20 20 20 19 19 19 18 18 18 18 18 17 18 19 18 18 17 16 15 15 14 13 13 13 12 12 12 12 12 12 11 11 10
16 17 17 15 13 14 14 16 18 18 19 19 18 17 18 17 16 16 17 18 17 17 18 19 20 20 18 17 19 20 20 20 20 19 19 19 19 19 19 19 19 18 19 19 18 18 17 15 15 14 13 12 12 11 12 12 12 12 13 13 13 13 13
15 15 15 14 14 15 15 16 17 17 18 17 16 15 14 14 15 16 17 17 17 16 16 15 15 16 14 13 16 19 19 19 20 20 20 21 22 21 20 20 19 19 19 19 19 19 18 17 16 16 14 13 13 12 12 12 12 12 12 12 13 14 14
14 14 14 14 14 15 15 16 17 17 18 18 16 15 14 15 15 16 16 16 15 15 15 14 13 14 15 15 16 17 17 17 17 18 20 22 23 22 20 19 20 21 21 20 19 18 18 17 17 17 16 15 15 15 14 14 14 13 13 13 13 13 12
13 14 14 14 15 15 14 15 17 18 18 17 17 17 16 15 14 13 15 16 15 16 18 18 15 15 17 17 16 16 16 16 16 17 17 18 20 21 20 19 18 20 22 22 20 19 19 19 17 17 17 16 15 16 15 15 15 14 13 13 13 12 11
Wind_Direction
215 219 221 223 230 231 215 203 197 192 192 195 197 193 191 196 201 204 207 206 201 197 198 198 194 195 195 194 194 192 195 195 193 195 194 197 203 203 203 202 203 203 200 202 200 196 203 202 205 220 216 214 217 213 209 207 204 203 207 211 210 214 222
213 217 220 224 228 228 222 214 206 200 196 196 198 195 193 198 201 204 209 208 204 200 200 200 197 197 198 196 196 196 201 202 198 198 196 196 200 205 207 202 201 204 203 202 198 197 202 199 200 217 229 234 234 226 218 214 210 209 212 214 215 218 221
213 213 218 222 227 230 226 214 206 205 200 195 197 196 195 199 202 206 210 211 207 202 202 202 199 199 200 200 199 199 202 205 203 203 204 202 201 202 207 208 202 202 207 207 201 206 215 205 198 205 219 231 238 236 222 217 218 217 220 219 216 218 220
227 215 216 218 224 231 227 211 200 202 201 197 195 196 197 199 203 208 213 214 212 205 203 205 202 201 203 203 203 201 203 206 207 207 209 210 209 204 203 207 205 204 211 213 207 210 225 227 209 206 215 224 233 238 226 216 220 222 225 227 225 225 224
250 226 218 219 225 226 216 211 208 202 201 199 195 197 202 203 205 209 212 215 217 212 207 207 206 204 205 206 207 207 207 208 209 209 210 212 214 212 208 206 205 207 211 213 212 208 208 222 233 228 224 225 233 241 240 231 229 229 227 228 230 230 231
258 241 224 222 230 223 210 217 219 202 199 203 199 199 204 205 205 207 210 214 218 217 210 208 209 208 208 208 209 212 212 212 213 212 212 213 214 215 216 213 209 209 211 212 216 214 205 207 223 237 240 240 239 240 242 240 240 243 242 239 238 232 232
286 258 235 229 231 219 214 225 222 203 202 209 206 206 206 204 203 205 209 213 215 217 213 208 209 210 211 211 211 214 215 215 216 215 214 213 213 214 217 219 218 216 218 216 215 218 216 210 212 223 236 249 254 248 241 238 240 248 256 258 256 250 247
312 288 248 238 234 219 218 224 221 213 214 212 210 213 211 204 202 204 207 209 211 214 213 208 206 208 211 213 213 214 217 219 219 217 215 211 210 213 215 219 223 223 224 224 222 223 226 224 224 226 228 236 249 254 249 243 242 249 259 264 265 265 264
320 310 285 247 235 225 223 225 222 220 221 216 212 213 211 205 202 203 202 203 206 209 210 207 203 204 210 213 214 212 212 220 223 221 218 214 211 214 215 217 223 226 225 225 229 232 233 231 234 237 234 229 233 240 246 248 246 250 255 256 259 261 261
334 322 312 278 243 230 227 228 229 227 226 226 220 215 214 211 210 209 202 198 204 207 208 206 200 202 208 211 214 213 209 215 224 226 225 221 215 214 216 219 222 227 229 227 226 230 234 232 231 238 243 240 233 231 234 237 237 241 244 243 248 254 251
359 341 327 311 279 246 227 224 227 228 228 230 228 221 217 213 213 214 208 212 223 214 204 201 197 201 212 215 215 213 208 209 217 223 227 227 220 214 215 220 224 230 233 233 231 230 232 233 233 238 243 241 232 229 233 236 235 238 242 240 242 247 245
15 17 349 327 313 290 247 225 225 226 225 224 224 221 216 210 209 210 210 223 250 226 201 197 191 191 205 216 216 213 208 208 212 218 222 227 225 217 216 220 224 231 235 236 235 231 229 233 235 237 238 236 233 234 241 245 242 243 250 248 243 246 247
21 47 31 340 317 304 282 250 236 233 228 223 219 216 212 209 208 208 210 220 246 242 200 198 196 190 190 198 205 207 208 209 211 214 219 224 223 218 218 220 221 224 228 230 231 229 230 235 237 236 237 239 238 240 246 251 251 253 255 252 245 245 248
38 57 54 12 329 309 297 277 251 243 237 230 224 217 212 210 209 209 210 215 225 228 194 195 202 206 201 196 197 202 209 210 206 207 211 215 217 219 220 224 226 226 225 226 228 228 229 235 240 241 244 248 249 249 250 252 255 257 252 245 243 244 248
43 55 57 44 8 332 305 299 285 265 250 239 230 221 214 208 206 208 208 208 212 210 198 197 203 215 218 209 204 212 225 222 208 209 214 214 218 225 225 228 234 236 233 233 234 236 236 240 244 245 247 251 254 256 256 254 256 258 248 237 240 245 248
26 46 56 54 43 30 1 316 320 305 276 254 233 219 211 203 202 209 213 208 202 198 202 208 211 218 219 212 211 220 230 228 216 217 223 222 224 228 228 232 239 242 242 240 242 247 250 248 246 246 248 250 251 257 260 257 256 258 250 238 238 242 244
13 40 54 49 47 50 69 102 82 63 16 274 221 193 186 187 190 203 210 202 192 191 198 206 210 212 209 205 210 217 222 225 223 221 225 227 229 232 233 237 243 245 246 245 246 252 255 254 251 251 252 250 251 259 261 252 250 256 257 248 243 245 246
13 31 51 48 50 57 79 95 72 72 60 15 107 138 147 157 161 172 185 183 183 194 200 204 205 205 205 209 216 220 222 226 229 229 231 233 237 240 240 241 242 244 246 247 249 251 253 254 251 249 250 251 255 259 254 246 245 251 259 256 249 249 250
12 10 33 41 48 56 70 75 53 71 80 59 68 99 121 139 142 146 159 167 180 199 208 210 211 213 218 222 224 226 228 231 234 239 242 243 245 248 248 247 247 248 249 250 252 253 253 253 250 248 249 252 254 253 247 244 242 242 253 261 256 250 247
9 11 39 48 55 65 74 79 68 70 82 82 87 105 124 138 145 148 146 154 176 200 212 215 221 229 230 223 218 219 227 234 235 238 242 245 248 250 249 249 250 251 252 252 253 254 255 255 254 252 251 250 249 246 242 240 241 244 254 263 259 248 245
19 29 66 73 74 79 78 76 76 78 82 85 92 108 124 133 143 152 153 159 179 198 207 208 214 220 214 207 207 211 221 229 227 227 232 237 243 246 246 249 252 253 254 254 253 252 253 255 256 255 252 247 243 241 238 237 242 249 257 259 256 251 249
54 53 76 83 78 78 77 73 74 81 88 90 84 82 104 125 140 151 158 165 177 193 205 208 214 219 216 215 215 212 218 224 223 225 231 236 243 247 249 251 251 251 253 254 253 252 251 252 254 254 250 242 238 237 237 237 243 249 253 258 261 257 250
69 72 80 83 79 77 76 76 79 87 93 98 94 83 84 114 149 159 163 171 180 190 199 205 214 222 226 228 225 220 222 226 227 232 238 242 247 250 250 251 250 250 252 254 256 256 254 253 254 254 248 240 236 235 235 237 241 243 244 253 261 255 243
78 82 80 80 79 75 71 72 78 87 95 98 96 91 85 98 134 152 156 169 185 192 196 204 208 214 222 227 227 225 224 225 228 232 235 239 244 249 253 257 257 256 255 256 257 257 256 255 250 240 229 230 233 230 230 234 236 237 236 240 250 251 242
72 72 70 73 74 69 66 73 80 86 90 91 93 97 97 102 120 126 124 130 137 137 140 154 174 190 205 216 220 220 218 221 230 236 240 246 251 256 262 264 264 262 258 254 254 257 258 252 239 223 213 220 229 228 227 227 227 231 234 235 241 246 242
84 75 76 80 78 65 61 70 79 83 85 87 92 102 111 120 127 122 115 115 113 103 98 102 116 132 146 167 188 199 205 218 233 243 254 262 266 268 268 266 266 263 258 256 257 256 245 232 222 214 211 218 224 228 229 225 225 236 246 248 245 244 245
98 89 83 83 81 68 60 67 75 79 82 87 90 95 101 106 109 105 102 102 101 97 95 97 100 102 104 106 103 100 104 108 101 89 27 285 284 282 272 269 270 266 273 275 254 223 207 204 203 202 207 214 219 225 229 225 225 238 252 257 253 248 252
112 101 91 89 86 74 67 71 75 75 77 82 84 87 91 94 95 94 91 89 89 91 98 101 98 94 92 90 86 84 84 86 86 84 81 81 77 73 70 59 52 55 46 19 215 193 186 190 197 199 204 208 212 217 221 223 226 232 239 244 245 246 251
125 115 106 97 87 81 79 77 77 76 75 76 78 80 83 85 87 87 87 86 86 88 92 94 92 90 89 88 86 83 82 82 83 83 83 84 83 81 80 74 68 69 69 72 118 160 161 165 178 188 195 202 207 208 208 212 220 224 225 228 233 242 254
128 119 120 108 87 86 90 87 82 79 77 75 75 77 79 80 80 78 78 80 83 87 89 90 91 90 88 88 88 87 85 84 84 84 85 86 86 86 88 90 88 82 78 78 84 87 89 92 90 90 110 139 162 166 162 176 200 212 214 214 221 251 267
131 120 126 127 105 95 97 94 88 84 80 76 74 75 77 78 77 76 75 74 73 73 75 79 84 85 84 83 82 82 81 80 78 77 77 78 79 80 82 84 86 85 82 80 80 80 78 77 75 73 75 80 80 77 77 76 69 62 51 47 57 252 245
126 122 123 126 121 114 108 100 93 89 84 78 74 74 74 73 69 68 70 71 71 69 67 68 71 75 77 77 76 76 77 76 74 73 73 73 72 72 71 71 72 76 78 77 77 77 77 77 77 74 71 71 74 73 70 69 70 71 72 72 79 90 101
106 118 121 119 118 117 114 107 102 100 94 86 82 80 78 73 67 61 58 60 66 68 65 63 63 65 68 71 72 74 75 75 75 75 75 74 72 70 68 65 64 65 67 68 68 69 70 72 74 74 70 66 64 64 66 71 73 76 78 79 79 80 82
93 103 112 117 116 113 110 106 105 105 101 94 89 86 81 76 74 71 65 63 69 72 68 65 63 60 58 59 64 70 72 72 73 74 74 74 73 72 71 68 64 63 63 63 63 62 62 63 64 65 65 62 61 62 67 72 74 77 79 79 77 79 83
95 93 98 107 114 114 107 101 102 103 101 98 95 94 91 85 83 84 81 79 82 85 83 83 82 77 68 58 58 64 69 70 69 69 71 71 70 68 68 65 63 62 62 62 62 60 60 61 62 64 64 64 65 67 68 72 76 79 79 78 78 83 91
104 99 96 97 103 110 108 103 103 102 98 96 96 95 95 92 91 90 87 84 85 85 89 97 100 95 84 68 61 64 68 69 67 67 68 67 64 63 63 63 62 61 59 58 58 58 58 59 62 65 66 67 70 73 74 77 81 84 85 85 87 90 92
115 115 114 110 109 111 112 112 111 106 99 96 92 86 81 82 88 92 89 84 82 78 79 86 91 85 76 68 64 65 65 66 67 67 66 64 59 57 57 59 61 60 57 54 54 55 55 56 58 61 63 66 70 73 76 79 82 87 94 98 98 95 89
131 130 128 126 121 116 114 115 112 106 101 98 92 87 81 75 77 90 97 91 80 71 67 67 70 73 70 65 62 60 58 58 62 63 60 56 53 53 54 55 58 58 54 50 52 54 53 52 54 58 59 63 67 70 73 77 81 88 99 105 103 97 90